Tampa, FL

7:26 AM EST on February 09, 2016 (GMT -0500)
MacDill Air Force Base

Weather History for KMCF - December, 2013

Change the Weather History Date:

Saturday, December 7, 2013

  Actual Average Record
Temperature  
Mean Temperature 75 °F -  
Max Temperature 85 °F 73 °F 86 °F (1998)
Min Temperature 65 °F 55 °F 32 °F (2010)
Cooling Degree Days 10    
Growing Degree Days 25 (Base 50)    
Moisture  
Dew Point 68 °F    
Average Humidity 90    
Maximum Humidity 100    
Minimum Humidity 57    
Precipitation  
Precipitation 0.00 in - - ()
Sea Level Pressure  
Sea Level Pressure 30.20 in    
Wind  
Wind Speed 4 mph (ESE)    
Max Wind Speed 7 mph    
Max Gust Speed -    
Visibility 8 miles    
Events Fog    
Averages and records for this station are not official NWS values.
T = Trace of Precipitation, MM = Missing Value Source: NWS Daily Summary

Daily Weather History Graph

Daily Weather History Graph

Search for Another Location

Airport or City:

Trip Planner

Search our weather history database for the weather conditions in past years. The results will help you decide how hot, cold, wet, or windy it might be!

Date:

Astronomy

Dec. 07, 2013 Rise Set
Actual Time 7:08 AM EST 5:34 PM EST
Civil Twilight 6:42 AM EST 6:00 PM EST
Nautical Twilight 6:13 AM EST 6:29 PM EST
Astronomical Twilight 5:45 AM EST 6:58 PM EST
Moon 11:09 AM EST (12/7) 10:55 PM EST (12/7)
Length of Visible Light 11h 17m
Length of Day
10h 26m
Waxing Crescent, 29% of the Moon is Illuminated
Dec 7
Waxing Crescent
Dec 9
First Quarter
Dec 17
Full
Dec 25
Last Quarter
Jan 1
New

Hourly Weather History & Observations

Time (EST) Temp. Heat Index Dew Point Humidity Pressure Visibility Wind Dir Wind Speed Gust Speed Precip Events Conditions
12:58 AM 68.2 °F - 68.2 °F 100% 30.19 in 10.0 mi ESE 2.3 mph - N/A   Partly Cloudy
1:58 AM 69.4 °F - 69.4 °F 100% 30.19 in 10.0 mi SSE 4.6 mph - N/A   Partly Cloudy
2:58 AM 69.4 °F - 69.4 °F 100% 30.18 in 10.0 mi ESE 3.5 mph - N/A   Partly Cloudy
3:58 AM 69.1 °F - 69.1 °F 100% 30.18 in 10.0 mi SE 4.6 mph - N/A   Clear
4:58 AM 66.7 °F - 66.7 °F 100% 30.18 in 7.0 mi ESE 4.6 mph - N/A   Clear
5:18 AM 66.2 °F - 66.2 °F 100% 30.17 in 1.8 mi SE 4.6 mph - N/A   Clear
5:23 AM 66.2 °F - 66.2 °F 100% 30.17 in 1.0 mi SE 4.6 mph - N/A   Clear
5:28 AM 66.2 °F - 66.2 °F 100% 30.18 in 0.5 mi SE 4.6 mph - N/A Fog Fog
5:33 AM 66.2 °F - 66.2 °F 100% 30.18 in 0.5 mi SE 4.6 mph - N/A Fog Fog
5:38 AM 66.2 °F - 66.2 °F 100% 30.18 in 0.8 mi ESE 3.5 mph - N/A   Clear
5:43 AM 68.0 °F - 68.0 °F 100% 30.18 in 1.8 mi ESE 3.5 mph - N/A   Clear
5:48 AM 68.0 °F - 68.0 °F 100% 30.18 in 3.0 mi ESE 2.3 mph - N/A   Clear
5:58 AM 66.9 °F - 66.9 °F 100% 30.19 in 10.0 mi East 1.2 mph - N/A   Clear
6:58 AM 65.1 °F - 65.1 °F 100% 30.22 in 10.0 mi East 2.3 mph - N/A   Clear
7:58 AM 66.0 °F - 66.0 °F 100% 30.24 in 10.0 mi ESE 3.5 mph - N/A   Clear
8:58 AM 70.9 °F - 70.2 °F 98% 30.25 in 10.0 mi SE 5.8 mph - N/A   Clear
9:58 AM 74.7 °F - 70.3 °F 86% 30.25 in 10.0 mi SSE 6.9 mph - N/A   Clear
10:58 AM 79.0 °F - 71.2 °F 77% 30.26 in 10.0 mi Variable 4.6 mph - N/A   Clear
11:58 AM 81.9 °F 86.2 °F 71.4 °F 70% 30.24 in 10.0 mi SE 4.6 mph - N/A   Partly Cloudy
12:58 PM 83.1 °F 87.3 °F 70.2 °F 65% 30.21 in 10.0 mi ENE 5.8 mph - N/A   Partly Cloudy
1:58 PM 85.6 °F 89.7 °F 69.1 °F 58% 30.18 in 10.0 mi ESE 3.5 mph - N/A   Clear
2:58 PM 84.4 °F 87.9 °F 68.7 °F 59% 30.16 in 10.0 mi Variable 4.6 mph - N/A   Clear
3:58 PM 84.0 °F 86.8 °F 67.1 °F 57% 30.16 in 10.0 mi WNW 5.8 mph - N/A   Clear
4:58 PM 82.8 °F 85.8 °F 68.2 °F 61% 30.17 in 10.0 mi West 3.5 mph - N/A   Clear
5:58 PM 74.7 °F - 65.7 °F 73% 30.17 in 10.0 mi WNW 1.2 mph - N/A   Clear
6:58 PM 68.5 °F - 65.8 °F 91% 30.19 in 10.0 mi West 5.8 mph - N/A   Clear
7:58 PM 69.3 °F - 68.7 °F 98% 30.19 in 10.0 mi NW 5.8 mph - N/A   Clear
8:58 PM 69.4 °F - 68.4 °F 96% 30.20 in 10.0 mi North 4.6 mph - N/A   Clear
9:58 PM 66.2 °F - 65.5 °F 98% 30.21 in 10.0 mi NE 3.5 mph - N/A   Clear
10:58 PM 65.3 °F - 64.8 °F 98% 30.22 in 10.0 mi East 5.8 mph - N/A   Clear
11:58 PM 66.9 °F - 66.7 °F 99% 30.22 in 10.0 mi ENE 3.5 mph - N/A   Clear